QPF
0.06 0.06 0.06 0.06 0.07 0.07 0.06 0.05 0.06 0.07 0.08 0.08 0.08 0.09 0.09 0.09 0.07 0.06 0.04 0.04 0.03 0.03 0.03 0.03 0.04 0.03 0.04 0.04 0.05 0.04 0.04 0.04 0.03 0.04 0.06 0.07 0.07 0.08
0.04 0.04 0.05 0.05 0.06 0.06 0.06 0.06 0.05 0.05 0.06 0.05 0.05 0.05 0.06 0.07 0.06 0.05 0.04 0.04 0.03 0.03 0.03 0.03 0.03 0.03 0.02 0.02 0.03 0.03 0.03 0.02 0.02 0.02 0.03 0.03 0.04 0.05
0.02 0.03 0.04 0.04 0.04 0.05 0.06 0.06 0.06 0.05 0.04 0.04 0.04 0.03 0.03 0.03 0.04 0.03 0.03 0.03 0.03 0.04 0.04 0.03 0.03 0.04 0.03 0.02 0.02 0.02 0.02 0.02 0.02 0.02 0.02 0.02 0.02 0.03
0.03 0.03 0.03 0.04 0.03 0.03 0.03 0.04 0.04 0.04 0.04 0.04 0.04 0.04 0.03 0.02 0.02 0.02 0.03 0.03 0.03 0.03 0.03 0.03 0.04 0.04 0.04 0.03 0.03 0.02 0.02 0.02 0.02 0.02 0.02 0.02 0.02 0.02
0.03 0.04 0.04 0.03 0.04 0.03 0.03 0.03 0.03 0.04 0.04 0.04 0.04 0.04 0.04 0.02 0.02 0.02 0.03 0.04 0.03 0.03 0.03 0.03 0.04 0.05 0.06 0.04 0.03 0.03 0.02 0.02 0.01 0.02 0.02 0.02 0.02 0.02
0.04 0.04 0.04 0.04 0.03 0.03 0.02 0.02 0.03 0.04 0.04 0.05 0.05 0.04 0.03 0.03 0.02 0.02 0.03 0.03 0.03 0.03 0.04 0.04 0.04 0.05 0.06 0.06 0.05 0.03 0.03 0.03 0.02 0.02 0.02 0.02 0.01 0.01
0.04 0.04 0.04 0.04 0.04 0.03 0.03 0.03 0.03 0.03 0.03 0.04 0.04 0.03 0.03 0.02 0.02 0.03 0.03 0.03 0.04 0.04 0.04 0.04 0.04 0.05 0.06 0.07 0.07 0.06 0.05 0.04 0.04 0.03 0.03 0.02 0.02 0.01
0.04 0.04 0.04 0.05 0.05 0.04 0.03 0.03 0.03 0.04 0.04 0.04 0.03 0.03 0.02 0.02 0.01 0.02 0.02 0.03 0.04 0.04 0.04 0.04 0.04 0.05 0.05 0.05 0.06 0.07 0.06 0.05 0.04 0.03 0.03 0.02 0.02 0.02
0.05 0.05 0.05 0.06 0.06 0.04 0.04 0.04 0.04 0.04 0.04 0.04 0.03 0.02 0.02 0.01 0.01 0.02 0.02 0.02 0.02 0.03 0.03 0.04 0.05 0.05 0.05 0.05 0.05 0.05 0.05 0.05 0.04 0.03 0.03 0.03 0.03 0.02
0.05 0.06 0.06 0.05 0.04 0.04 0.04 0.03 0.03 0.04 0.04 0.04 0.03 0.02 0.02 0.02 0.01 0.02 0.03 0.03 0.04 0.03 0.03 0.04 0.04 0.04 0.05 0.06 0.06 0.05 0.04 0.04 0.03 0.03 0.04 0.04 0.04 0.03
0.06 0.06 0.06 0.05 0.05 0.04 0.04 0.03 0.03 0.04 0.04 0.04 0.04 0.04 0.03 0.03 0.03 0.03 0.04 0.05 0.05 0.05 0.04 0.04 0.04 0.04 0.04 0.05 0.05 0.06 0.05 0.04 0.03 0.03 0.03 0.03 0.03 0.03
0.07 0.07 0.06 0.05 0.05 0.05 0.04 0.04 0.04 0.04 0.04 0.04 0.05 0.05 0.04 0.03 0.03 0.03 0.03 0.03 0.04 0.04 0.04 0.03 0.03 0.04 0.04 0.04 0.04 0.04 0.05 0.05 0.04 0.03 0.03 0.03 0.02 0.02
0.07 0.08 0.07 0.06 0.05 0.06 0.05 0.05 0.05 0.04 0.04 0.04 0.05 0.05 0.06 0.05 0.04 0.03 0.03 0.03 0.02 0.02 0.02 0.03 0.03 0.03 0.04 0.04 0.04 0.03 0.03 0.03 0.03 0.03 0.03 0.03 0.02 0.01
0.07 0.07 0.07 0.07 0.06 0.07 0.06 0.06 0.06 0.06 0.06 0.06 0.06 0.06 0.06 0.06 0.05 0.04 0.03 0.03 0.02 0.02 0.02 0.02 0.03 0.03 0.03 0.03 0.02 0.03 0.03 0.02 0.02 0.02 0.02 0.02 0.02 0.02
0.06 0.07 0.07 0.07 0.08 0.08 0.09 0.07 0.06 0.06 0.07 0.07 0.07 0.06 0.05 0.05 0.05 0.05 0.04 0.04 0.03 0.03 0.03 0.02 0.02 0.03 0.03 0.03 0.02 0.02 0.02 0.02 0.02 0.01 0.01 0.01 0.01 0.01
0.06 0.06 0.06 0.07 0.08 0.08 0.09 0.08 0.07 0.07 0.07 0.07 0.07 0.07 0.06 0.05 0.05 0.05 0.05 0.05 0.05 0.05 0.04 0.03 0.03 0.03 0.03 0.03 0.03 0.03 0.02 0.03 0.02 0.01 0.01 0.01 0.01 0.01
0.06 0.06 0.05 0.05 0.06 0.07 0.07 0.07 0.08 0.07 0.07 0.06 0.07 0.07 0.07 0.07 0.07 0.07 0.06 0.05 0.05 0.04 0.04 0.03 0.03 0.03 0.03 0.03 0.03 0.03 0.03 0.03 0.02 0.02 0.01 0.01 0.01 0.00
0.06 0.07 0.07 0.06 0.06 0.06 0.05 0.06 0.07 0.07 0.07 0.06 0.06 0.06 0.06 0.06 0.06 0.07 0.07 0.06 0.06 0.05 0.04 0.03 0.03 0.03 0.03 0.03 0.02 0.02 0.02 0.02 0.02 0.02 0.01 0.01 0.01 0.00
0.05 0.06 0.06 0.06 0.06 0.05 0.05 0.04 0.05 0.05 0.06 0.06 0.07 0.07 0.06 0.06 0.05 0.05 0.05 0.06 0.06 0.06 0.05 0.04 0.04 0.03 0.03 0.02 0.02 0.01 0.01 0.01 0.01 0.01 0.01 0.01 0.01 0.01
0.05 0.05 0.05 0.05 0.05 0.05 0.05 0.04 0.04 0.04 0.04 0.05 0.05 0.05 0.05 0.05 0.05 0.05 0.04 0.05 0.05 0.05 0.05 0.04 0.04 0.03 0.03 0.02 0.01 0.01 0.01 0.01 0.01 0.01 0.01 0.01 0.01 0.01
0.06 0.06 0.05 0.05 0.04 0.04 0.04 0.04 0.04 0.04 0.04 0.04 0.04 0.04 0.04 0.04 0.04 0.04 0.04 0.04 0.04 0.04 0.04 0.04 0.03 0.02 0.02 0.02 0.02 0.01 0.01 0.01 0.01 0.01 0.01 0.01 0.01 0.01
0.05 0.06 0.05 0.04 0.04 0.03 0.03 0.03 0.03 0.03 0.03 0.03 0.03 0.03 0.03 0.03 0.03 0.03 0.03 0.03 0.03 0.03 0.03 0.03 0.03 0.03 0.03 0.02 0.02 0.01 0.01 0.01 0.01 0.01 0.01 0.01 0.02 0.01
0.04 0.04 0.05 0.05 0.04 0.03 0.03 0.02 0.02 0.03 0.02 0.02 0.03 0.02 0.02 0.02 0.02 0.02 0.02 0.02 0.02 0.02 0.02 0.02 0.02 0.02 0.02 0.02 0.02 0.01 0.01 0.01 0.01 0.01 0.01 0.01 0.01 0.01
MSLP
1026.13 1025.95 1025.74 1025.50 1025.20 1024.83 1024.37 1023.84 1023.25 1022.63 1022.01 1021.43 1020.90 1020.45 1020.09 1019.79 1019.55 1019.34 1019.13 1018.89 1018.60 1018.26 1017.85 1017.39 1016.91 1016.43 1015.99 1015.59 1015.27 1015.03 1014.87 1014.78 1014.74 1014.73 1014.74 1014.73 1014.69 1014.62
1026.05 1025.89 1025.74 1025.55 1025.31 1025.00 1024.59 1024.11 1023.55 1022.94 1022.32 1021.71 1021.14 1020.65 1020.23 1019.88 1019.59 1019.33 1019.08 1018.82 1018.51 1018.15 1017.74 1017.29 1016.80 1016.32 1015.85 1015.44 1015.09 1014.82 1014.63 1014.51 1014.44 1014.42 1014.41 1014.40 1014.37 1014.30
1025.74 1025.58 1025.45 1025.30 1025.11 1024.86 1024.52 1024.10 1023.60 1023.04 1022.44 1021.85 1021.28 1020.76 1020.30 1019.91 1019.57 1019.26 1018.97 1018.67 1018.33 1017.96 1017.55 1017.10 1016.62 1016.14 1015.69 1015.27 1014.91 1014.63 1014.42 1014.27 1014.19 1014.14 1014.12 1014.10 1014.07 1014.00
1025.30 1025.12 1024.97 1024.84 1024.69 1024.49 1024.22 1023.87 1023.44 1022.95 1022.42 1021.87 1021.32 1020.80 1020.33 1019.90 1019.52 1019.16 1018.82 1018.48 1018.12 1017.73 1017.31 1016.87 1016.42 1015.96 1015.53 1015.13 1014.78 1014.49 1014.27 1014.11 1014.00 1013.93 1013.89 1013.85 1013.81 1013.74
1024.83 1024.61 1024.44 1024.30 1024.16 1024.00 1023.78 1023.50 1023.15 1022.73 1022.27 1021.78 1021.28 1020.79 1020.32 1019.88 1019.46 1019.07 1018.69 1018.31 1017.92 1017.52 1017.10 1016.67 1016.24 1015.81 1015.41 1015.04 1014.71 1014.43 1014.20 1014.03 1013.90 1013.80 1013.72 1013.65 1013.58 1013.50
1024.43 1024.15 1023.94 1023.77 1023.63 1023.48 1023.29 1023.06 1022.77 1022.43 1022.03 1021.61 1021.16 1020.71 1020.26 1019.83 1019.40 1018.99 1018.58 1018.17 1017.76 1017.34 1016.92 1016.51 1016.10 1015.71 1015.34 1015.00 1014.70 1014.43 1014.20 1014.01 1013.85 1013.72 1013.60 1013.50 1013.39 1013.28
1024.11 1023.78 1023.53 1023.32 1023.15 1022.99 1022.81 1022.59 1022.34 1022.05 1021.72 1021.35 1020.96 1020.56 1020.15 1019.73 1019.31 1018.90 1018.47 1018.05 1017.63 1017.21 1016.79 1016.39 1016.00 1015.64 1015.31 1015.00 1014.72 1014.46 1014.24 1014.03 1013.85 1013.68 1013.52 1013.37 1013.22 1013.07
1023.86 1023.50 1023.20 1022.95 1022.74 1022.54 1022.33 1022.12 1021.87 1021.61 1021.31 1021.00 1020.66 1020.31 1019.95 1019.56 1019.17 1018.77 1018.35 1017.93 1017.50 1017.08 1016.67 1016.28 1015.91 1015.58 1015.27 1014.98 1014.72 1014.48 1014.26 1014.04 1013.84 1013.64 1013.44 1013.25 1013.06 1012.87
1023.65 1023.26 1022.92 1022.62 1022.35 1022.10 1021.85 1021.60 1021.35 1021.08 1020.81 1020.53 1020.24 1019.94 1019.62 1019.29 1018.94 1018.56 1018.17 1017.76 1017.34 1016.93 1016.52 1016.14 1015.79 1015.47 1015.18 1014.92 1014.68 1014.45 1014.23 1014.02 1013.80 1013.58 1013.36 1013.13 1012.90 1012.68
1023.41 1022.99 1022.62 1022.27 1021.95 1021.63 1021.33 1021.03 1020.74 1020.46 1020.19 1019.93 1019.68 1019.42 1019.16 1018.88 1018.58 1018.25 1017.89 1017.51 1017.11 1016.71 1016.31 1015.94 1015.60 1015.29 1015.02 1014.77 1014.55 1014.34 1014.14 1013.94 1013.72 1013.50 1013.27 1013.02 1012.77 1012.51
1023.08 1022.66 1022.26 1021.87 1021.49 1021.12 1020.75 1020.40 1020.07 1019.76 1019.48 1019.23 1019.01 1018.80 1018.59 1018.37 1018.12 1017.84 1017.52 1017.16 1016.79 1016.40 1016.02 1015.66 1015.33 1015.03 1014.77 1014.54 1014.35 1014.16 1013.98 1013.80 1013.60 1013.39 1013.16 1012.91 1012.65 1012.38
1022.67 1022.24 1021.82 1021.40 1020.98 1020.55 1020.13 1019.73 1019.36 1019.03 1018.75 1018.51 1018.31 1018.13 1017.97 1017.79 1017.59 1017.35 1017.07 1016.75 1016.40 1016.03 1015.67 1015.31 1014.99 1014.71 1014.47 1014.26 1014.08 1013.92 1013.77 1013.62 1013.45 1013.26 1013.05 1012.81 1012.55 1012.27
1022.19 1021.76 1021.33 1020.89 1020.43 1019.98 1019.52 1019.09 1018.69 1018.35 1018.05 1017.82 1017.64 1017.49 1017.36 1017.23 1017.06 1016.86 1016.61 1016.32 1015.99 1015.64 1015.28 1014.95 1014.64 1014.37 1014.14 1013.95 1013.80 1013.66 1013.54 1013.41 1013.26 1013.10 1012.91 1012.69 1012.45 1012.18
1021.68 1021.26 1020.83 1020.38 1019.92 1019.45 1018.98 1018.54 1018.13 1017.78 1017.49 1017.27 1017.10 1016.97 1016.86 1016.74 1016.60 1016.42 1016.19 1015.92 1015.60 1015.27 1014.93 1014.60 1014.30 1014.05 1013.83 1013.66 1013.52 1013.40 1013.30 1013.18 1013.06 1012.91 1012.74 1012.53 1012.30 1012.04
1021.21 1020.80 1020.38 1019.95 1019.49 1019.03 1018.57 1018.14 1017.74 1017.39 1017.11 1016.89 1016.73 1016.61 1016.51 1016.39 1016.26 1016.08 1015.86 1015.59 1015.29 1014.96 1014.63 1014.32 1014.03 1013.79 1013.58 1013.42 1013.28 1013.17 1013.06 1012.94 1012.81 1012.66 1012.49 1012.29 1012.07 1011.82
1020.82 1020.42 1020.02 1019.61 1019.19 1018.75 1018.32 1017.91 1017.53 1017.20 1016.93 1016.72 1016.56 1016.43 1016.32 1016.20 1016.05 1015.87 1015.64 1015.37 1015.07 1014.75 1014.43 1014.12 1013.84 1013.61 1013.40 1013.23 1013.09 1012.95 1012.82 1012.68 1012.52 1012.35 1012.15 1011.94 1011.71 1011.46
1020.52 1020.15 1019.78 1019.40 1019.00 1018.60 1018.21 1017.83 1017.48 1017.17 1016.91 1016.71 1016.54 1016.40 1016.26 1016.12 1015.96 1015.75 1015.51 1015.23 1014.93 1014.61 1014.30 1014.00 1013.73 1013.49 1013.28 1013.09 1012.92 1012.75 1012.57 1012.38 1012.17 1011.95 1011.71 1011.46 1011.21 1010.96
1020.32 1019.97 1019.62 1019.27 1018.91 1018.55 1018.19 1017.84 1017.51 1017.23 1016.97 1016.76 1016.58 1016.42 1016.27 1016.10 1015.91 1015.68 1015.43 1015.14 1014.84 1014.52 1014.22 1013.93 1013.66 1013.41 1013.19 1012.97 1012.76 1012.54 1012.30 1012.04 1011.77 1011.47 1011.18 1010.88 1010.60 1010.33
1020.18 1019.85 1019.52 1019.20 1018.86 1018.52 1018.18 1017.85 1017.54 1017.26 1017.01 1016.79 1016.59 1016.41 1016.23 1016.04 1015.83 1015.59 1015.32 1015.04 1014.74 1014.43 1014.13 1013.85 1013.58 1013.33 1013.08 1012.83 1012.58 1012.30 1012.00 1011.67 1011.32 1010.96 1010.60 1010.26 1009.93 1009.64
1020.09 1019.76 1019.44 1019.12 1018.79 1018.45 1018.11 1017.78 1017.47 1017.18 1016.91 1016.68 1016.47 1016.27 1016.07 1015.87 1015.64 1015.40 1015.14 1014.86 1014.56 1014.27 1013.98 1013.70 1013.43 1013.17 1012.91 1012.63 1012.34 1012.01 1011.66 1011.27 1010.86 1010.44 1010.03 1009.64 1009.28 1008.96
1020.01 1019.68 1019.35 1019.00 1018.65 1018.29 1017.93 1017.57 1017.23 1016.92 1016.64 1016.38 1016.15 1015.94 1015.73 1015.52 1015.30 1015.06 1014.81 1014.55 1014.27 1013.99 1013.71 1013.44 1013.17 1012.90 1012.62 1012.33 1012.00 1011.65 1011.26 1010.83 1010.39 1009.94 1009.49 1009.07 1008.68 1008.35
1019.95 1019.60 1019.23 1018.84 1018.43 1018.02 1017.61 1017.20 1016.82 1016.47 1016.15 1015.87 1015.62 1015.40 1015.19 1014.99 1014.78 1014.56 1014.32 1014.07 1013.82 1013.55 1013.29 1013.02 1012.75 1012.47 1012.18 1011.87 1011.54 1011.17 1010.77 1010.35 1009.90 1009.45 1009.00 1008.57 1008.18 1007.83
1019.92 1019.51 1019.08 1018.62 1018.15 1017.66 1017.17 1016.69 1016.25 1015.84 1015.48 1015.17 1014.90 1014.67 1014.47 1014.27 1014.08 1013.88 1013.67 1013.44 1013.20 1012.94 1012.68 1012.41 1012.13 1011.85 1011.55 1011.24 1010.91 1010.55 1010.17 1009.77 1009.36 1008.94 1008.52 1008.11 1007.73 1007.38
Thickness
5504 5509 5514 5518 5521 5525 5529 5532 5534 5536 5537 5537 5536 5537 5537 5538 5540 5541 5543 5544 5545 5546 5547 5547 5547 5546 5546 5545 5544 5543 5542 5540 5538 5537 5535 5533 5531 5529
5490 5495 5500 5506 5510 5513 5517 5520 5523 5527 5529 5529 5527 5526 5527 5528 5529 5531 5533 5534 5535 5536 5536 5536 5536 5536 5536 5535 5534 5532 5531 5529 5528 5526 5524 5522 5521 5519
5478 5482 5488 5492 5497 5501 5505 5508 5512 5515 5517 5517 5516 5515 5516 5517 5518 5520 5521 5523 5524 5525 5525 5525 5525 5525 5525 5524 5523 5521 5520 5518 5517 5515 5513 5512 5510 5509
5467 5471 5475 5479 5484 5489 5493 5497 5500 5503 5505 5506 5504 5504 5505 5507 5508 5509 5510 5511 5512 5513 5513 5513 5514 5513 5513 5513 5512 5510 5509 5507 5505 5504 5502 5501 5499 5497
5456 5460 5464 5468 5472 5477 5480 5484 5488 5491 5493 5494 5494 5494 5494 5495 5496 5497 5498 5499 5500 5501 5501 5501 5502 5501 5501 5501 5500 5499 5497 5496 5494 5493 5490 5489 5487 5486
5444 5448 5452 5457 5461 5466 5469 5472 5475 5478 5481 5483 5484 5483 5484 5483 5484 5486 5486 5487 5487 5488 5489 5489 5490 5490 5489 5489 5489 5487 5485 5484 5482 5481 5479 5477 5475 5474
5432 5437 5441 5445 5449 5453 5457 5461 5462 5465 5468 5471 5473 5473 5474 5473 5474 5475 5475 5475 5475 5475 5477 5478 5478 5478 5477 5477 5476 5474 5473 5471 5470 5468 5467 5465 5464 5462
5422 5427 5430 5434 5437 5441 5445 5448 5450 5453 5457 5460 5463 5464 5465 5465 5465 5463 5463 5464 5464 5464 5464 5464 5464 5465 5465 5464 5463 5461 5460 5459 5458 5456 5455 5453 5452 5450
5412 5416 5420 5424 5427 5430 5433 5434 5437 5440 5444 5449 5452 5454 5455 5455 5455 5453 5452 5453 5453 5451 5449 5451 5451 5451 5451 5451 5450 5448 5447 5446 5445 5444 5443 5441 5440 5439
5401 5405 5410 5413 5416 5419 5421 5423 5425 5429 5432 5435 5439 5441 5441 5442 5442 5442 5441 5438 5437 5435 5436 5438 5438 5438 5438 5438 5437 5435 5435 5434 5433 5431 5430 5429 5428 5427
5390 5394 5399 5402 5406 5408 5411 5413 5415 5418 5419 5422 5424 5426 5428 5429 5428 5428 5427 5427 5426 5425 5423 5425 5425 5424 5424 5425 5423 5422 5421 5420 5419 5418 5417 5416 5415 5414
5380 5384 5388 5392 5395 5397 5400 5404 5406 5407 5409 5411 5412 5414 5415 5416 5416 5417 5418 5417 5415 5414 5412 5411 5411 5409 5410 5411 5410 5408 5407 5406 5405 5405 5404 5402 5401 5401
5369 5373 5378 5381 5384 5388 5391 5394 5396 5397 5398 5399 5401 5402 5403 5403 5404 5404 5405 5405 5405 5404 5401 5398 5397 5396 5396 5396 5396 5394 5393 5393 5392 5391 5390 5389 5388 5387
5359 5363 5368 5371 5375 5377 5380 5383 5385 5386 5387 5388 5390 5391 5391 5391 5391 5391 5391 5391 5391 5391 5389 5387 5385 5384 5383 5382 5382 5381 5379 5379 5378 5378 5377 5376 5375 5374
5349 5353 5356 5361 5364 5366 5368 5371 5373 5375 5377 5378 5378 5378 5378 5378 5378 5377 5377 5377 5377 5376 5375 5374 5374 5372 5371 5370 5369 5368 5366 5365 5365 5364 5364 5363 5363 5362
5339 5342 5345 5349 5351 5353 5355 5358 5360 5362 5364 5365 5365 5365 5365 5365 5365 5366 5365 5364 5364 5362 5361 5361 5360 5359 5359 5358 5356 5355 5354 5353 5353 5352 5351 5351 5350 5350
5329 5332 5336 5338 5339 5340 5342 5344 5346 5347 5349 5350 5351 5351 5352 5352 5352 5352 5352 5352 5351 5350 5349 5347 5347 5346 5346 5345 5344 5344 5343 5342 5341 5340 5339 5339 5339 5339
5319 5322 5324 5325 5327 5328 5330 5331 5332 5333 5334 5335 5337 5337 5338 5339 5338 5338 5338 5339 5339 5338 5337 5336 5335 5334 5333 5332 5331 5332 5331 5330 5329 5328 5327 5327 5329 5328
5308 5311 5312 5312 5313 5315 5316 5317 5318 5319 5320 5321 5322 5323 5324 5324 5324 5324 5325 5325 5325 5325 5324 5323 5322 5323 5324 5324 5321 5318 5319 5318 5317 5316 5316 5316 5317 5317
5296 5298 5299 5300 5301 5302 5303 5305 5306 5307 5308 5308 5309 5309 5310 5311 5311 5311 5311 5311 5312 5311 5311 5310 5310 5310 5310 5310 5308 5306 5305 5305 5305 5304 5304 5303 5304 5305
5283 5285 5287 5288 5289 5290 5291 5292 5293 5294 5295 5296 5296 5296 5297 5298 5298 5298 5299 5299 5299 5299 5299 5298 5296 5295 5294 5294 5295 5296 5294 5292 5291 5290 5290 5290 5292 5294
5270 5272 5274 5276 5277 5278 5279 5280 5281 5281 5282 5283 5283 5284 5285 5285 5286 5286 5286 5287 5287 5287 5286 5285 5283 5283 5283 5284 5285 5284 5283 5281 5279 5279 5278 5278 5278 5281
5258 5260 5262 5264 5265 5266 5267 5268 5268 5269 5269 5270 5271 5272 5273 5273 5274 5275 5275 5275 5275 5274 5274 5273 5272 5271 5271 5271 5271 5271 5269 5269 5269 5269 5269 5268 5267 5268